Regional Weather Roundup
Issued by NWS Albany, NY

Home | Current Version | Previous Version | Text Only | Print | Product List | Glossary On
Versions: 1 2 3 4 5 6 7 8 9 10 11 12 13 14 15 16 17 18 19 20 21 22 23 24 25 26 27 28 29 30 31 32 33 34 35 36 37 38 39 40 41 42 43 44 45 46 47 48 49 50
722
ASUS41 KALY 251110
RWRALY

NEW YORK STATE HOURLY WEATHER ROUNDUP
NATIONAL WEATHER SERVICE ALBANY NY
700 AM EDT MON JUL 25 2016

NOTE: "FAIR" INDICATES FEW OR NO CLOUDS BELOW 12,000 FEET WITH NO
SIGNIFICANT WEATHER AND/OR NO OBSTRUCTIONS TO VISIBILITY.

NYZ032-033-038>043-046>054-057>066-NYZ062>081-082-084-251200-
EAST


CITY           SKY/WX    TMP DP  RH WIND       PRES   REMARKS
ALBANY         PTSUNNY   69  64  84 CALM      29.93S
GLENS FALLS    SUNNY     66  62  87 CALM      29.92F
POUGHKEEPSIE   PTSUNNY   73  67  81 CALM      29.93S
NEWBURGH       MOSUNNY   73  68  83 CALM      29.96S
MONTGOMERY     MOSUNNY   71  66  84 CALM      29.94S
WHITE PLAINS   LGT RAIN  75  68  78 CALM      29.96R
ISLIP          CLOUDY    78  68  71 SW15G21   29.96R
NEW YORK CITY  CLOUDY    82  67  60 S9        29.94R
CENTRAL PARK   CLOUDY    79  67  66 SW8G22    29.98R
$$

NYZ005>009-017-018-044>046-055-056-251200-
CENTRAL


CITY           SKY/WX    TMP DP  RH WIND       PRES   REMARKS
FULTON         CLOUDY    72  63  73 CALM      29.90R
SYRACUSE       CLOUDY    67  64  90 CALM      29.89S
ROME           CLOUDY    66  63  90 SE7       29.92S
ELMIRA         MOSUNNY   67  60  78 CALM      29.94F
BINGHAMTON     MOSUNNY   69  60  73 SW7       29.97S
MONTICELLO     SUNNY     66  63  88 CALM      30.00S
$$

NYZ026>034-041>043-087-251200-
NORTH


CITY           SKY/WX    TMP DP  RH WIND       PRES   REMARKS
WATERTOWN      CLOUDY    73  56  54 SW8       29.87R
FORT DRUM      NOT AVBL
MASSENA        CLOUDY    63  59  87 NE3       29.87F
SARANAC LAKE   MOSUNNY   57  54  89 CALM      29.94F
PLATTSBURGH    SUNNY     61  60  97 CALM      29.90F
$$

NYZ001>004-010>016-019>021-085-251200-
WEST


CITY           SKY/WX    TMP DP  RH WIND       PRES   REMARKS
NIAGARA FALLS  TSTM      74  68  81 NW18G24   29.90R
BUFFALO        CLOUDY    78  69  73 S7        29.87S THUNDER
DUNKIRK        CLOUDY    76  71  85 S15       29.87F
JAMESTOWN      MOCLDY    70  66  88 S7        29.96F
WELLSVILLE     CLEAR     71  65  81 SW8       30.02S
ROCHESTER      CLOUDY    75  66  73 SW7       29.88S
PENN YAN       MOSUNNY   72  62  71 SW10      29.93S
$$

             KEY
       WCI = WIND CHILL INDEX
       VSB = VISIBILITY
       HX  = HEAT INDEX
$$




USA.gov is the U.S. government's official web portal to all federal, state and local government web resources and services.